Printer-friendly version

IAU Minor Planet Center

Minor Planet Center

MPEC 2008-C43 : 2008 CC6

The following Minor Planet Electronic Circular may be linked-to from your own Web pages, but must not otherwise be redistributed electronically.


Read MPEC 2008-C42 Read MPEC 2008-C44


M.P.E.C. 2008-C43                                Issued 2008 Feb. 8, 17:00 UT

     The Minor Planet Electronic Circulars contain information on unusual
         minor planets and routine data on comets.  They are published
   on behalf of Commission 20 of the International Astronomical Union by the
          Minor Planet Center, Smithsonian Astrophysical Observatory,
                          Cambridge, MA 02138, U.S.A.

             Prepared using the Tamkin Foundation Computer Network

                              MPC@CFA.HARVARD.EDU
          URL http://www.cfa.harvard.edu/iau/mpc.html  ISSN 1523-6714

                                   2008 CC6

Observations:
     K08C06C* C2008 02 07.37314 10 52 52.89 +04 18 47.6          20.5 V EC043691
     K08C06C  C2008 02 07.39072 10 52 50.93 +04 19 11.9          20.4 V EC043691
     K08C06C  C2008 02 07.41125 10 52 48.65 +04 19 40.6          20.0 V EC043691
     K08C06C  C2008 02 07.58588 10 52 31.47 +04 24 23.7          20.9 R EC043474
     K08C06C  C2008 02 07.58788 10 52 31.17 +04 24 26.1          20.6 R EC043474
     K08C06C  C2008 02 07.58971 10 52 31.01 +04 24 29.3          20.2 R EC043474
     K08C06C  C2008 02 07.59178 10 52 30.82 +04 24 32.5          19.9 R EC043474
     K08C06C  C2008 02 08.32000 10 51 12.82 +04 42 01.6          21.3 V EC043291
     K08C06C  C2008 02 08.32504 10 51 12.16 +04 42 09.6          21.1 V EC043291
     K08C06C  C2008 02 08.32881 10 51 11.72 +04 42 15.5          21.0 V EC043291
     K08C06C  C2008 02 08.40258 10 51 02.44 +04 44 11.4          20.8 V EC043G96
     K08C06C  C2008 02 08.41004 10 51 01.47 +04 44 23.0          20.7 V EC043G96
     K08C06C  C2008 02 08.41744 10 51 00.57 +04 44 34.5          20.6 V EC043G96

Observer details:
291 LPL/Spacewatch II.  Observer J. V. Scotti.  1.8-m f/2.7 reflector + CCD.
474 Mount John Observatory, Lake Tekapo.  Observer A. C. Gilmore.  1.0-m f/7.7
    reflector + CCD.
691 Steward Observatory, Kitt Peak.  Observer J. V. Scotti.  0.9-m f/3
    reflector + CCD.
G96 Mt. Lemmon Survey.  Measurers E. C. Beshore, A. Boattini, G. J. Garradd,
    A. R. Gibbs, A. D. Grauer, R. E. Hill, R. A. Kowalski, S. M. Larson,
    R. H. McNaught.  1.5-m reflector + CCD.

Orbital elements:
2008 CC6                                                 Earth MOID = 0.0206 AU
Epoch 2007 Oct. 27.0 TT = JDT 2454400.5                 MPC
M 246.95168              (2000.0)            P               Q
n   0.67516519     Peri.  136.54301     +0.23950326     +0.96678888
a   1.2868542      Node   147.01574     -0.92958760     +0.25485829
e   0.7819482      Incl.    9.43077     -0.28018757     -0.01914439
P   1.46           H   22.1           G   0.15           U   9
Residuals in seconds of arc
080207 691  0.2+  0.0     080207 474  0.1+  0.1+    080208 G96  0.3+  0.1+
080207 691  0.1-  0.1-    080207 474  0.7+  0.4+    080208 G96  0.1-  0.1-
080207 691  0.2-  0.1+    080208 291  0.1+  0.0     080208 G96  0.4+  0.3-
080207 474  0.6+  0.0     080208 291  0.4-  0.1+
080207 474  0.6-  0.4-    080208 291  0.1+  0.0

Ephemeris:
2008 CC6                 a,e,i = 1.29, 0.78, 9                   q = 0.2806
Date    TT    R. A. (2000) Decl.     Delta      r     Elong.  Phase     V
2008 02 04    10 57.33   +03 15.3    0.342    1.293   150.0    22.4    21.4
2008 02 05    10 56.22   +03 31.5    0.325    1.281   151.3    21.7    21.3
2008 02 06    10 54.95   +03 49.9    0.309    1.269   152.8    20.8    21.1
2008 02 07    10 53.48   +04 10.6    0.293    1.257   154.3    19.9    20.9
2008 02 08    10 51.80   +04 34.1    0.277    1.245   155.8    18.9    20.8
2008 02 09    10 49.85   +05 00.8    0.262    1.232   157.5    17.9    20.6
2008 02 10    10 47.61   +05 31.2    0.246    1.220   159.2    16.7    20.4
2008 02 11    10 45.03   +06 06.1    0.231    1.207   161.1    15.4    20.2
2008 02 12    10 42.02   +06 46.1    0.215    1.195   163.0    14.0    19.9
2008 02 13    10 38.50   +07 32.5    0.200    1.182   165.2    12.4    19.7
2008 02 14    10 34.37   +08 26.4    0.185    1.169   167.5    10.6    19.4
2008 02 15    10 29.46   +09 29.8    0.171    1.156   170.0     8.5    19.2
2008 02 16    10 23.57   +10 44.8    0.156    1.143   172.8     6.2    18.8
2008 02 17    10 16.41   +12 14.5    0.142    1.130   175.8     3.7    18.5
2008 02 18    10 07.55   +14 02.8    0.128    1.116   177.6     2.1    18.1
2008 02 19    09 56.38   +16 15.1    0.115    1.103   174.7     4.7    18.0
2008 02 20    09 41.99   +18 58.0    0.102    1.089   169.6     9.4    17.9
2008 02 21    09 22.95   +22 19.4    0.0899   1.075   163.2    15.4    17.9
2008 02 22    08 57.04   +26 25.5    0.0790   1.061   155.1    23.1    17.8
2008 02 23    08 20.95   +31 14.0    0.0698   1.047   144.9    32.9    17.8
2008 02 24    07 30.51   +36 16.0    0.0629   1.033   132.3    45.1    17.9
2008 02 25    06 23.54   +40 16.2    0.0592   1.018   117.7    59.4    18.1
2008 02 26    05 06.39   +41 37.4    0.0591   1.004   102.1    74.6    18.6
2008 02 27    03 54.23   +39 55.6    0.0628   0.989    87.4    88.9    19.2
2008 02 28    02 57.57   +36 26.0    0.0695   0.975    74.8   101.2    19.9
2008 02 29    02 16.54   +32 32.6    0.0785   0.960    64.6   111.2    20.7
2008 03 01    01 47.16   +28 58.5    0.0892   0.944    56.4   119.1    21.5
2008 03 02    01 25.68   +25 55.8    0.101    0.929    49.8   125.4    22.2
2008 03 03    01 09.53   +23 23.4    0.114    0.914    44.4   130.6    22.9
2008 03 04    00 57.02   +21 16.6    0.127    0.898    39.9   134.9    23.6
2008 03 05    00 47.08   +19 30.5    0.140    0.882    36.1   138.6    24.2

Timothy B. Spahr             (C) Copyright 2008 MPC           M.P.E.C. 2008-C43

Read MPEC 2008-C42 Read MPEC 2008-C44


Our Web policy. Index to the CBAT/MPC/ICQ pages.


Valid HTML 4.01!